W0RBO Weather Reports


time (UTC)temp
C
wind
direction
speed
KPH
gust
KPH
rain 1hr
cm
rain 24hr
cm
rain mn
cm
humidity
%
barometer
mb
20260504234714 23 114 1.6 9.7 0.00 0.00 0.00 36 1002.5
20260504233817 24 105 4.8 9.7 0.00 0.00 0.00 35 1002.5
20260504232703 24 101 1.6 9.7 0.00 0.00 0.00 34 1002.4
20260504231803 25 101 4.8 11.3 0.00 0.00 0.00 35 1002.5
20260504231113 25 102 8.0 12.9 0.00 0.00 0.00 33 1002.5
20260504230216 25 104 6.4 12.9 0.00 0.00 0.00 30 1002.5
20260504225403 26 104 6.4 12.9 0.00 0.00 0.00 30 1002.6
20260504224503 26 115 3.2 16.1 0.00 0.00 0.00 29 1002.7
20260504223817 26 127 4.8 16.1 0.00 0.00 0.00 26 1002.8
20260504222703 27 105 6.4 16.1 0.00 0.00 0.00 28 1002.9
20260504221803 27 122 9.7 22.5 0.00 0.00 0.00 26 1002.9
20260504221114 27 126 6.4 22.5 0.00 0.00 0.00 25 1002.9
20260504220003 27 129 6.4 16.1 0.00 0.00 0.00 24 1002.9
20260504215613 27 130 6.4 17.7 0.00 0.00 0.00 24 1002.9
20260504214715 27 126 11.3 24.1 0.00 0.00 0.00 24 1002.9
20260504213813 27 113 8.0 22.5 0.00 0.00 0.00 25 1002.9
20260504212915 27 118 6.4 16.1 0.00 0.00 0.00 23 1002.9
20260504212013 27 116 6.4 14.5 0.00 0.00 0.00 23 1003.0
20260504210903 27 129 8.0 19.3 0.00 0.00 0.00 23 1003.1
20260504210212 27 138 8.0 16.1 0.00 0.00 0.00 25 1003.2
20260504205403 27 113 4.8 16.1 0.00 0.00 0.00 27 1003.2
20260504204503 27 125 6.4 16.1 0.00 0.00 0.00 24 1003.3
20260504203603 27 103 4.8 14.5 0.00 0.00 0.00 24 1003.4
20260504202703 27 100 4.8 17.7 0.00 0.00 0.00 25 1003.7
20260504201803 26 102 8.0 16.1 0.00 0.00 0.00 26 1003.8
20260504201115 27 109 8.0 17.7 0.00 0.00 0.00 26 1003.8
20260504200003 27 118 4.8 20.9 0.00 0.00 0.00 25 1003.9
20260504195403 27 130 3.2 14.5 0.00 0.00 0.00 26 1004.0
20260504194503 27 125 6.4 17.7 0.00 0.00 0.00 24 1004.0
20260504193603 26 106 8.0 17.7 0.00 0.00 0.00 25 1004.2
20260504192703 26 107 8.0 17.7 0.00 0.00 0.00 26 1004.2
20260504191803 26 107 11.3 20.9 0.00 0.00 0.00 27 1004.2
20260504191116 26 108 8.0 17.7 0.00 0.00 0.00 29 1004.3
20260504190003 26 100 4.8 14.5 0.00 0.00 0.00 29 1004.4
20260504185403 26 96 6.4 14.5 0.00 0.00 0.00 27 1004.4
20260504184712 26 86 6.4 17.7 0.00 0.00 0.00 27 1004.4
20260504183815 26 87 3.2 14.5 0.00 0.00 0.00 28 1004.4
20260504182703 26 92 3.2 17.7 0.00 0.00 0.00 25 1004.4
20260504181803 26 88 1.6 17.7 0.00 0.00 0.00 28 1004.6
20260504180903 26 85 1.6 17.7 0.00 0.00 0.00 27 1004.7
20260504180003 25 79 4.8 17.7 0.00 0.00 0.00 28 1004.7
20260504175616 25 83 4.8 17.7 0.00 0.00 0.00 28 1004.7
20260504174713 26 80 3.2 19.3 0.00 0.00 0.00 28 1004.8
20260504173815 26 67 1.6 17.7 0.00 0.00 0.00 27 1004.7
20260504172913 26 63 4.8 17.7 0.00 0.00 0.00 27 1004.8
20260504171803 27 11 3.2 16.1 0.00 0.00 0.00 27 1004.9
20260504170903 26 21 4.8 16.1 0.00 0.00 0.00 30 1004.9
20260504170215 26 29 3.2 14.5 0.00 0.00 0.00 30 1005.0
20260504160215 22 16 3.2 14.5 0.00 0.00 0.00 43 1005.1
20260504150903 20 360 3.2 14.5 0.00 0.00 0.00 48 1005.2
20260504140903 16 338 3.2 11.3 0.00 0.00 0.00 59 1005.3
20260504140217 16 331 3.2 12.9 0.00 0.00 0.00 60 1005.3
20260504130217 12 286 1.6 4.8 0.00 0.00 0.00 75 1004.4
20260504110213 10 0 0.0 0.0 0.00 0.00 0.00 74 1003.6
20260504081113 13 88 1.6 8.0 0.00 0.00 0.00 65 1004.9
20260504080215 12 0 0.0 3.2 0.00 0.00 0.00 66 1005.0
20260504070216 13 88 4.8 11.3 0.00 0.00 0.00 62 1005.3
20260504050005 17 99 11.3 17.7 0.00 0.00 0.00 45 1006.6
20260504045614 17 100 11.3 17.7 0.00 0.00 0.00 45 1006.8
20260504044716 17 93 12.9 19.3 0.00 0.00 0.00 45 1006.9
20260504043813 17 89 14.5 22.5 0.00 0.00 0.00 44 1007.1
20260504042916 17 86 11.3 22.5 0.00 0.00 0.00 44 1007.1
20260504041803 17 87 8.0 19.3 0.00 0.00 0.00 44 1007.3
20260504041115 17 76 6.4 17.7 0.00 0.00 0.00 45 1007.4
20260504040003 17 79 11.3 17.7 0.00 0.00 0.00 43 1007.7
20260504035614 18 81 11.3 19.3 0.00 0.00 0.00 43 1007.7
20260504034717 18 80 12.9 22.5 0.00 0.00 0.00 41 1007.7
20260504033603 19 78 12.9 29.0 0.00 0.00 0.00 38 1007.9
20260504032916 19 74 8.0 25.7 0.00 0.00 0.00 40 1007.9
20260504031803 18 77 6.4 24.1 0.00 0.00 0.00 41 1008.1
20260504030903 18 68 3.2 16.1 0.00 0.00 0.00 41 1007.9
20260504030003 19 76 9.7 22.5 0.00 0.00 0.00 41 1008.0
20260504025615 19 76 11.3 22.5 0.00 0.00 0.00 41 1008.1
20260504024503 18 78 1.6 9.7 0.00 0.00 0.00 43 1008.0
20260504023815 18 77 1.6 12.9 0.00 0.00 0.00 43 1007.9
20260504022917 19 75 3.2 11.3 0.00 0.00 0.00 42 1007.9
20260504021803 20 78 4.8 20.9 0.00 0.00 0.00 42 1007.9
20260504021117 20 49 1.6 11.3 0.00 0.00 0.00 42 1007.8
20260504020003 20 27 1.6 4.8 0.00 0.00 0.00 42 1008.1
20260504015403 20 82 1.6 8.0 0.00 0.00 0.00 42 1007.8
20260504014503 20 19 1.6 11.3 0.00 0.00 0.00 41 1007.7
20260504013603 21 0 0.0 6.4 0.00 0.00 0.00 41 1007.7
20260504012703 21 57 1.6 11.3 0.00 0.00 0.00 40 1007.6
20260504012015 21 48 1.6 11.3 0.00 0.00 0.00 39 1007.5
20260504011117 22 75 1.6 9.7 0.00 0.00 0.00 38 1007.3
20260504010215 22 7 1.6 12.9 0.00 0.00 0.00 38 1007.4
20260504005403 22 71 3.2 16.1 0.00 0.00 0.00 37 1007.4
20260504004713 23 86 12.9 24.1 0.00 0.00 0.00 36 1007.2
20260504003816 23 93 12.9 22.5 0.00 0.00 0.00 35 1007.1
20260504002913 23 94 12.9 24.1 0.00 0.00 0.00 35 1007.1
20260504001803 24 94 12.9 24.1 0.00 0.00 0.00 33 1007.2
20260504001113 24 95 14.5 24.1 0.00 0.00 0.00 32 1007.3
20260504000003 25 95 17.7 29.0 0.00 0.00 0.00 30 1007.4
20260503235403 25 96 17.7 29.0 0.00 0.00 0.00 30 1007.6